Regional Weather Roundup
Issued by NWS Goodland, KS

Home | Current Version | Previous Version | Graphics & Text | Print | Product List | Glossary On
Versions: 1 2 3 4 5 6 7 8 9 10 11 12 13 14 15 16 17 18 19 20 21 22 23 24 25 26 27 28 29 30 31 32 33 34 35 36 37 38 39 40 41 42 43 44 45 46 47 48 49 50
077
ASUS43 KGLD 232259
RWRGLD

GOODLAND FORECAST AREA HOURLY WEATHER ROUNDUP
NATIONAL WEATHER SERVICE GOODLAND KS
400 PM MST THU FEB 23 2017

...OFFICIAL OBSERVATIONS...

CITY           SKY/WX    TMP DP  RH WIND       PRES   REMARKS
GOODLAND KS    CLOUDY    31  29  92 N14       29.59R
HILL CITY KS   CLOUDY    35  33  92 NE21G29   29.56R FOG
IMPERIAL NEB   LGT SNOW  27  25  92 N17       29.66R VSB 3/4 WCI  14
MCCOOK NEB     LGT SNOW  31  30  96 N14       29.62R FOG
AKRON CO       LGT SNOW  23  20  88 N17       29.65R FOG     WCI   9
BURLINGTON CO  CLOUDY    31  28  89 N13       29.59R
LIMON CO       CLOUDY    30  27  88 N17G25    29.58R WCI  18
$$

...UNOFFICIAL OBSERVATIONS...

CITY           SKY/WX    TMP DP  RH WIND       PRES   REMARKS
LENORA KS        N/A     33  32  96 N12         N/A
NORTON KS      LGT SNOW  34  28  80 NE16G22   29.54F
SHARON SPRINGS   N/A     33  30  90 N13G21      N/A
TRENTON NEB      N/A     30  32 100 CALM        N/A
KIT CARSON CO    N/A     34  29  82 MISG        N/A
YUMA CO        LGT SNOW  25  23  93 N8        29.65R
$$




USA.gov is the U.S. government's official web portal to all federal, state and local government web resources and services.